TimeEST,TemperatureF,Dew PointF,Humidity,Sea Level PressureIn,VisibilityMPH,Wind Direction,Wind SpeedMPH,Gust SpeedMPH,PrecipitationIn,Events,Conditions,WindDirDegrees,DateUTC
12:53 AM,48.0,45.0,89,30.07,5.0,South,4.6,-,N/A,,Scattered Clouds,190,2012-12-03 05:53:00
1:53 AM,48.0,45.0,89,30.08,4.0,SSW,4.6,-,N/A,,Mostly Cloudy,200,2012-12-03 06:53:00
2:35 AM,46.4,44.6,93,30.08,2.5,Calm,Calm,-,N/A,,Overcast,0,2012-12-03 07:35:00
2:51 AM,44.6,42.8,93,30.09,1.8,SSE,4.6,-,N/A,,Scattered Clouds,160,2012-12-03 07:51:00
2:53 AM,44.1,43.0,96,30.09,1.2,SSE,4.6,-,N/A,,Scattered Clouds,160,2012-12-03 07:53:00
3:00 AM,44.6,42.8,93,30.09,0.2,South,4.6,-,N/A,Fog,Fog,170,2012-12-03 08:00:00
3:16 AM,44.6,42.8,93,30.07,1.5,South,4.6,-,N/A,,Partly Cloudy,170,2012-12-03 08:16:00
3:24 AM,44.6,42.8,93,30.08,2.0,South,3.5,-,N/A,,Partly Cloudy,180,2012-12-03 08:24:00
3:33 AM,44.6,42.8,93,30.08,1.5,South,3.5,-,N/A,,Partly Cloudy,170,2012-12-03 08:33:00
3:53 AM,39.9,39.0,97,30.08,0.2,SE,3.5,-,N/A,Fog,Fog,140,2012-12-03 08:53:00
4:53 AM,41.0,41.0,100,30.11,0.2,Calm,Calm,-,N/A,Fog,Fog,0,2012-12-03 09:53:00
5:05 AM,42.8,42.8,100,30.10,0.2,South,6.9,-,N/A,Fog,Fog,170,2012-12-03 10:05:00
5:35 AM,39.2,39.2,100,30.11,0.2,Calm,Calm,-,N/A,Fog,Fog,0,2012-12-03 10:35:00
5:53 AM,39.9,37.9,93,30.12,0.2,Calm,Calm,-,N/A,Fog,Fog,0,2012-12-03 10:53:00
6:15 AM,41.0,39.2,93,30.12,3.0,SW,3.5,-,N/A,,Mostly Cloudy,220,2012-12-03 11:15:00
6:53 AM,39.9,37.9,93,30.13,2.0,Calm,Calm,-,N/A,,Clear,0,2012-12-03 11:53:00
7:03 AM,41.0,39.2,93,30.14,2.0,Calm,Calm,-,N/A,,Partly Cloudy,0,2012-12-03 12:03:00
7:34 AM,39.2,37.4,93,30.15,0.2,Calm,Calm,-,N/A,Fog,Fog,0,2012-12-03 12:34:00
7:41 AM,37.4,37.4,100,30.15,2.0,Calm,Calm,-,N/A,,Partly Cloudy,0,2012-12-03 12:41:00
7:53 AM,41.0,39.0,93,30.16,1.0,South,4.6,-,N/A,,Partly Cloudy,180,2012-12-03 12:53:00
8:00 AM,41.0,39.2,93,30.16,3.0,Calm,Calm,-,N/A,,Partly Cloudy,0,2012-12-03 13:00:00
8:53 AM,48.9,45.0,86,30.17,3.0,Calm,Calm,-,N/A,,Clear,0,2012-12-03 13:53:00
10:53 AM,55.0,44.1,67,30.18,9.0,NNW,8.1,-,N/A,,Partly Cloudy,340,2012-12-03 15:53:00
11:53 AM,57.0,39.9,53,30.17,10.0,NNW,8.1,-,N/A,,Clear,340,2012-12-03 16:53:00
12:53 PM,57.0,39.0,51,30.17,10.0,NW,8.1,-,N/A,,Clear,320,2012-12-03 17:53:00
1:53 PM,57.0,39.0,51,30.16,10.0,NNW,11.5,-,N/A,,Clear,340,2012-12-03 18:53:00
2:53 PM,55.0,37.9,53,30.18,10.0,North,5.8,-,N/A,,Clear,360,2012-12-03 19:53:00
3:53 PM,54.0,37.9,55,30.20,10.0,NNW,6.9,-,N/A,,Clear,340,2012-12-03 20:53:00
4:53 PM,51.1,37.0,59,30.23,10.0,NW,3.5,-,N/A,,Clear,310,2012-12-03 21:53:00
5:53 PM,48.9,37.0,64,30.25,10.0,NW,3.5,-,N/A,,Clear,320,2012-12-03 22:53:00
6:53 PM,43.0,36.0,76,30.26,10.0,Calm,Calm,-,N/A,,Clear,0,2012-12-03 23:53:00
7:53 PM,41.0,36.0,82,30.27,10.0,Calm,Calm,-,N/A,,Clear,0,2012-12-04 00:53:00
8:53 PM,37.9,35.1,89,30.28,10.0,Calm,Calm,-,N/A,,Clear,0,2012-12-04 01:53:00
9:53 PM,37.0,34.0,89,30.28,8.0,Calm,Calm,-,N/A,,Clear,0,2012-12-04 02:53:00
10:53 PM,35.1,33.1,92,30.30,7.0,Calm,Calm,-,N/A,,Clear,0,2012-12-04 03:53:00
11:23 PM,33.8,30.2,87,30.30,2.0,Calm,Calm,-,N/A,,Clear,0,2012-12-04 04:23:00
11:33 PM,33.8,30.2,87,30.29,4.0,Calm,Calm,-,N/A,,Clear,0,2012-12-04 04:33:00
11:53 PM,33.1,30.9,92,30.29,2.5,Calm,Calm,-,N/A,,Clear,0,2012-12-04 04:53:00